When you browse on this site, cookies collect data to enhance your experience and personalize the content and advertising you see.
Visit our Privacy Policy to learn more. By continuing to use the site, you agree to this use of cookies and data.
  • în România
  • Lista ţărilor
  • Pe 7 zile
  • Temperatura apei
  • Hartă satelitară
  • Meteo pe hartă
  • Widget-uri
  • user-avatar
    Intrare

    Meteo pe oră la Dzierzkow

    Astăzi, 22 Februarie, Vineri

    Timp Temperatura Precipitaţii Vânt Presiune Umiditate
    00:00 +5°C° 1.1 mm 5 m/s 745 mmHg 91%
    01:00 +5°C° 0 mm 4 m/s 745 mmHg 92%
    02:00 +5°C° 0.7 mm 4 m/s 745 mmHg 93%
    03:00 +5°C° 0.7 mm 5 m/s 746 mmHg 94%
    04:00 +5°C° 0.7 mm 5 m/s 746 mmHg 95%
    05:00 +3°C° 0.3 mm 5 m/s 747 mmHg 93%
    06:00 +2°C° 0.3 mm 6 m/s 748 mmHg 91%
    07:00 +1°C° 0 mm 5 m/s 749 mmHg 87%
    08:00 0°C° 0.1 mm 5 m/s 750 mmHg 84%
    09:00 -1°C° 0.1 mm 5 m/s 751 mmHg 80%
    10:00 -3°C° 0.1 mm 6 m/s 752 mmHg 77%
    11:00 -2°C° 0 mm 5 m/s 753 mmHg 69%
    12:00 -1°C° 0 mm 5 m/s 754 mmHg 62%
    13:00 -1°C° 0 mm 5 m/s 756 mmHg 52%
    14:00 -1°C° 0 mm 5 m/s 756 mmHg 51%
    15:00 -1°C° 0 mm 5 m/s 756 mmHg 49%
    16:00 -2°C° 0 mm 5 m/s 757 mmHg 48%
    17:00 -3°C° 0 mm 4 m/s 757 mmHg 51%
    18:00 -4°C° 0 mm 3 m/s 758 mmHg 55%
    19:00 -4°C° 0 mm 3 m/s 759 mmHg 58%
    20:00 -5°C° 0 mm 3 m/s 759 mmHg 57%
    21:00 -4°C° 0 mm 2 m/s 760 mmHg 57%
    22:00 -4°C° 0 mm 2 m/s 760 mmHg 56%
    23:00 -4°C° 0 mm 2 m/s 761 mmHg 54%

    Mâine, 23 Februarie, Sâmbătă

    Timp Temperatura Precipitaţii Vânt Presiune Umiditate
    00:00 -4°C° 0 mm 2 m/s 761 mmHg 53%
    01:00 -4°C° 0 mm 2 m/s 761 mmHg 51%
    02:00 -2°C° 0 mm 1 m/s 761 mmHg 51%
    03:00 -3°C° 0 mm 1 m/s 761 mmHg 50%
    04:00 -3°C° 0 mm 1 m/s 761 mmHg 50%
    05:00 -3°C° 0 mm 1 m/s 761 mmHg 49%
    06:00 -3°C° 0 mm 1 m/s 761 mmHg 49%
    07:00 -3°C° 0 mm 1 m/s 761 mmHg 49%
    08:00 -2°C° 0 mm 1 m/s 761 mmHg 43%
    09:00 -3°C° 0 mm 2 m/s 762 mmHg 38%
    10:00 -2°C° 0 mm 2 m/s 762 mmHg 32%
    11:00 -1°C° 0 mm 2 m/s 761 mmHg 30%
    12:00 +1°C° 0 mm 2 m/s 761 mmHg 28%
    13:00 +1°C° 0 mm 2 m/s 761 mmHg 25%
    14:00 +1°C° 0 mm 2 m/s 761 mmHg 27%
    15:00 +1°C° 0 mm 2 m/s 760 mmHg 29%
    16:00 +2°C° 0 mm 2 m/s 760 mmHg 30%
    17:00 -1°C° 0 mm 2 m/s 760 mmHg 34%
    18:00 -2°C° 0 mm 2 m/s 760 mmHg 38%
    19:00 -3°C° 0 mm 2 m/s 760 mmHg 42%
    20:00 -3°C° 0 mm 2 m/s 760 mmHg 41%
    21:00 -3°C° 0 mm 2 m/s 759 mmHg 40%
    22:00 -3°C° 0 mm 2 m/s 759 mmHg 40%
    23:00 -1°C° 0 mm 1 m/s 759 mmHg 38%

    Poimâine, 24 Februarie, Duminică

    Timp Temperatura Precipitaţii Vânt Presiune Umiditate
    00:00 0°C° 0 mm 1 m/s 759 mmHg 36%
    01:00 0°C° 0 mm 1 m/s 759 mmHg 35%
    02:00 0°C° 0 mm 1 m/s 759 mmHg 34%
    03:00 0°C° 0 mm 1 m/s 758 mmHg 33%
    04:00 -1°C° 0 mm 0 m/s 758 mmHg 32%
    05:00 -1°C° 0 mm 0 m/s 758 mmHg 32%
    06:00 +1°C° 0 mm 1 m/s 758 mmHg 32%
    07:00 +1°C° 0 mm 1 m/s 758 mmHg 31%
    08:00 +3°C° 0 mm 1 m/s 758 mmHg 30%
    09:00 +4°C° 0 mm 1 m/s 758 mmHg 28%
    10:00 +5°C° 0 mm 1 m/s 758 mmHg 27%
    11:00 +5°C° 0 mm 2 m/s 758 mmHg 27%
    12:00 +7°C° 0 mm 2 m/s 758 mmHg 28%
    13:00 +8°C° 0 mm 2 m/s 758 mmHg 29%
    14:00 +7°C° 0 mm 2 m/s 758 mmHg 34%
    15:00 +7°C° 0 mm 2 m/s 757 mmHg 40%
    16:00 +6°C° 0 mm 2 m/s 757 mmHg 45%
    17:00 +5°C° 0 mm 2 m/s 757 mmHg 48%
    18:00 +4°C° 0 mm 2 m/s 757 mmHg 51%
    19:00 +2°C° 0 mm 2 m/s 757 mmHg 53%
    20:00 +2°C° 0 mm 2 m/s 757 mmHg 54%
    21:00 +2°C° 0 mm 2 m/s 758 mmHg 55%
    22:00 +2°C° 0 mm 2 m/s 758 mmHg 56%
    23:00 +2°C° 0 mm 2 m/s 758 mmHg 57%

    25 Februarie, Luni

    Timp Temperatura Precipitaţii Vânt Presiune Umiditate
    00:00 +2°C° 0 mm 2 m/s 758 mmHg 58%
    01:00 +2°C° 0 mm 2 m/s 758 mmHg 59%
    02:00 +2°C° 0 mm 2 m/s 758 mmHg 60%
    03:00 +2°C° 0 mm 2 m/s 758 mmHg 61%
    04:00 +2°C° 0 mm 2 m/s 757 mmHg 62%
    05:00 +1°C° 0 mm 2 m/s 757 mmHg 63%
    06:00 +1°C° 0 mm 2 m/s 757 mmHg 64%
    07:00 +1°C° 0 mm 2 m/s 757 mmHg 66%
    08:00 +3°C° 0 mm 2 m/s 758 mmHg 62%
    09:00 +3°C° 0 mm 3 m/s 758 mmHg 58%
    10:00 +5°C° 0 mm 3 m/s 758 mmHg 55%
    11:00 +7°C° 0 mm 3 m/s 758 mmHg 56%
    12:00 +8°C° 0 mm 3 m/s 758 mmHg 58%
    13:00 +9°C° 0 mm 3 m/s 758 mmHg 59%
    14:00 +9°C° 0 mm 3 m/s 757 mmHg 61%
    15:00 +9°C° 0 mm 2 m/s 757 mmHg 64%
    16:00 +9°C° 0 mm 2 m/s 757 mmHg 66%
    17:00 +7°C° 0 mm 2 m/s 757 mmHg 71%
    18:00 +6°C° 0 mm 2 m/s 756 mmHg 75%
    19:00 +4°C° 0 mm 2 m/s 756 mmHg 80%
    20:00 +4°C° 0 mm 2 m/s 756 mmHg 79%
    21:00 +4°C° 0 mm 2 m/s 756 mmHg 78%
    22:00 +3°C° 0 mm 3 m/s 756 mmHg 78%
    23:00 +3°C° 0 mm 3 m/s 756 mmHg 77%

    26 Februarie, Marţi

    Timp Temperatura Precipitaţii Vânt Presiune Umiditate
    00:00 +3°C° 0 mm 3 m/s 756 mmHg 76%
    01:00 +3°C° 0 mm 3 m/s 756 mmHg 75%
    02:00 +2°C° 0 mm 3 m/s 755 mmHg 74%
    03:00 +2°C° 0 mm 3 m/s 755 mmHg 73%
    04:00 +2°C° 0 mm 3 m/s 755 mmHg 72%
    05:00 +2°C° 0 mm 3 m/s 755 mmHg 70%
    06:00 +2°C° 0 mm 3 m/s 755 mmHg 68%
    07:00 +1°C° 0 mm 4 m/s 754 mmHg 66%
    08:00 +3°C° 0 mm 4 m/s 754 mmHg 61%
    09:00 +5°C° 0 mm 5 m/s 755 mmHg 56%
    10:00 +7°C° 0 mm 5 m/s 755 mmHg 51%
    11:00 +8°C° 0 mm 5 m/s 754 mmHg 49%
    12:00 +9°C° 0 mm 6 m/s 754 mmHg 47%
    13:00 +10°C° 0 mm 6 m/s 753 mmHg 44%
    14:00 +10°C° 0 mm 6 m/s 753 mmHg 46%
    15:00 +10°C° 0 mm 6 m/s 753 mmHg 48%
    16:00 +10°C° 0 mm 6 m/s 753 mmHg 50%
    17:00 +8°C° 0 mm 5 m/s 753 mmHg 56%
    18:00 +7°C° 0 mm 4 m/s 753 mmHg 63%
    19:00 +6°C° 0 mm 4 m/s 753 mmHg 69%
    20:00 +5°C° 0 mm 3 m/s 753 mmHg 73%
    21:00 +5°C° 0 mm 3 m/s 753 mmHg 76%
    22:00 +4°C° 0 mm 3 m/s 753 mmHg 79%
    23:00 +4°C° 0 mm 3 m/s 753 mmHg 79%

    27 Februarie, Miercuri

    Timp Temperatura Precipitaţii Vânt Presiune Umiditate
    00:00 +4°C° 0 mm 2 m/s 753 mmHg 80%
    01:00 +4°C° 0 mm 2 m/s 753 mmHg 80%
    02:00 +4°C° 0 mm 2 m/s 753 mmHg 80%
    03:00 +4°C° 0 mm 2 m/s 752 mmHg 80%
    04:00 +3°C° 0 mm 2 m/s 752 mmHg 80%
    05:00 +3°C° 0 mm 2 m/s 752 mmHg 80%
    06:00 +3°C° 0 mm 2 m/s 752 mmHg 80%
    07:00 +3°C° 0 mm 2 m/s 752 mmHg 80%
    08:00 +5°C° 0 mm 2 m/s 751 mmHg 73%
    09:00 +7°C° 0 mm 2 m/s 751 mmHg 66%
    10:00 +9°C° 0 mm 2 m/s 751 mmHg 59%
    11:00 +10°C° 0 mm 3 m/s 751 mmHg 54%
    12:00 +12°C° 0 mm 3 m/s 750 mmHg 50%
    13:00 +13°C° 0 mm 3 m/s 750 mmHg 45%
    14:00 +13°C° 0 mm 3 m/s 749 mmHg 47%
    15:00 +13°C° 0 mm 3 m/s 748 mmHg 49%
    16:00 +13°C° 0 mm 3 m/s 747 mmHg 50%
    17:00 +12°C° 0 mm 3 m/s 747 mmHg 56%
    18:00 +10°C° 0 mm 3 m/s 747 mmHg 61%
    19:00 +8°C° 0 mm 3 m/s 746 mmHg 66%
    20:00 +8°C° 0 mm 3 m/s 746 mmHg 65%
    21:00 +8°C° 0 mm 3 m/s 745 mmHg 63%
    22:00 +7°C° 0 mm 4 m/s 745 mmHg 62%
    23:00 +7°C° 0 mm 4 m/s 744 mmHg 64%
    Arată mai mult